Time,TemperatureF,DewpointF,PressureIn,WindDirection,WindDirectionDegrees,WindSpeedMPH,WindSpeedGustMPH,Humidity,HourlyPrecipIn,Conditions,Clouds,dailyrainin,SoftwareType,DateUTC
2013-05-05 00:02:00,66.0,57.0,29.85,South,172,2.0,-999.0,73,-99.99,,,-99.99,,2013-05-05 05:02:00,
2013-05-05 00:12:00,66.0,57.0,29.85,South,172,2.0,-999.0,73,-99.99,,,-99.99,,2013-05-05 05:12:00,
2013-05-05 00:21:00,66.0,58.0,29.85,South,188,2.0,-999.0,75,-99.99,,,-99.99,,2013-05-05 05:21:00,
2013-05-05 00:32:00,65.0,57.0,29.85,South,186,2.0,-999.0,75,-99.99,,,-99.99,,2013-05-05 05:32:00,
2013-05-05 00:42:00,65.0,57.0,29.85,South,186,2.0,-999.0,75,-99.99,,,-99.99,,2013-05-05 05:42:00,
2013-05-05 00:51:00,65.0,57.0,29.85,South,185,2.0,-999.0,76,-99.99,,,-99.99,,2013-05-05 05:51:00,
2013-05-05 01:01:00,65.0,57.0,29.85,South,171,1.0,-999.0,76,-99.99,,,-99.99,,2013-05-05 06:01:00,
2013-05-05 01:12:00,65.0,57.0,29.85,South,171,1.0,-999.0,76,-99.99,,,-99.99,,2013-05-05 06:12:00,
2013-05-05 01:21:00,65.0,57.0,29.85,South,179,2.0,-999.0,76,-99.99,,,-99.99,,2013-05-05 06:21:00,
2013-05-05 01:32:00,65.0,58.0,29.85,SSE,165,1.0,-999.0,77,-99.99,,,-99.99,,2013-05-05 06:32:00,
2013-05-05 01:42:00,65.0,58.0,29.85,SSE,165,1.0,-999.0,77,-99.99,,,-99.99,,2013-05-05 06:42:00,
2013-05-05 01:52:00,64.0,57.0,29.84,South,177,1.0,-999.0,77,-99.99,,,-99.99,,2013-05-05 06:52:00,
2013-05-05 02:01:00,64.0,57.0,29.84,SSE,168,0.0,-999.0,79,-99.99,,,-99.99,,2013-05-05 07:01:00,
2013-05-05 02:11:00,64.0,57.0,29.84,SSE,168,0.0,-999.0,79,-99.99,,,-99.99,,2013-05-05 07:11:00,
2013-05-05 02:21:00,64.0,58.0,29.84,SSE,168,0.0,-999.0,80,-99.99,,,-99.99,,2013-05-05 07:21:00,
2013-05-05 02:32:00,64.0,58.0,29.84,SSE,168,0.0,-999.0,80,-99.99,,,-99.99,,2013-05-05 07:32:00,
2013-05-05 02:42:00,64.0,58.0,29.84,SSE,168,0.0,-999.0,80,-99.99,,,-99.99,,2013-05-05 07:42:00,
2013-05-05 02:52:00,64.0,58.0,29.83,SSE,168,0.0,-999.0,81,-99.99,,,-99.99,,2013-05-05 07:52:00,
2013-05-05 03:02:00,64.0,58.0,29.83,South,174,1.0,-999.0,81,-99.99,,,-99.99,,2013-05-05 08:02:00,
2013-05-05 03:11:00,64.0,58.0,29.83,South,174,1.0,-999.0,81,-99.99,,,-99.99,,2013-05-05 08:11:00,
2013-05-05 03:21:00,64.0,58.0,29.82,South,177,0.0,-999.0,82,-99.99,,,-99.99,,2013-05-05 08:21:00,
2013-05-05 03:31:00,63.0,57.0,29.82,South,177,0.0,-999.0,82,-99.99,,,-99.99,,2013-05-05 08:31:00,
2013-05-05 03:42:00,63.0,57.0,29.82,South,177,0.0,-999.0,82,-99.99,,,-99.99,,2013-05-05 08:42:00,
2013-05-05 03:53:00,63.0,58.0,29.82,South,177,1.0,-999.0,83,-99.99,,,-99.99,,2013-05-05 08:53:00,
2013-05-05 04:01:00,63.0,58.0,29.81,South,181,1.0,-999.0,83,-99.99,,,-99.99,,2013-05-05 09:01:00,
2013-05-05 04:11:00,63.0,58.0,29.81,South,181,1.0,-999.0,83,-99.99,,,-99.99,,2013-05-05 09:11:00,
2013-05-05 04:21:00,63.0,58.0,29.80,South,181,0.0,-999.0,83,-99.99,,,-99.99,,2013-05-05 09:21:00,
2013-05-05 04:32:00,63.0,58.0,29.81,South,181,0.0,-999.0,83,-99.99,,,-99.99,,2013-05-05 09:32:00,
2013-05-05 04:42:00,63.0,58.0,29.81,South,181,0.0,-999.0,83,-99.99,,,-99.99,,2013-05-05 09:42:00,
2013-05-05 04:52:00,62.0,57.0,29.82,South,181,0.0,-999.0,84,-99.99,,,-99.99,,2013-05-05 09:52:00,
2013-05-05 05:03:00,62.0,57.0,29.82,South,181,0.0,-999.0,84,-99.99,,,-99.99,,2013-05-05 10:03:00,
2013-05-05 05:12:00,62.0,57.0,29.82,South,181,0.0,-999.0,84,-99.99,,,-99.99,,2013-05-05 10:12:00,
2013-05-05 05:22:00,61.0,57.0,29.82,South,181,0.0,-999.0,86,-99.99,,,-99.99,,2013-05-05 10:22:00,
2013-05-05 05:32:00,61.0,57.0,29.82,South,181,0.0,-999.0,86,-99.99,,,-99.99,,2013-05-05 10:32:00,
2013-05-05 05:42:00,61.0,57.0,29.82,South,181,0.0,-999.0,86,-99.99,,,-99.99,,2013-05-05 10:42:00,
2013-05-05 05:52:00,61.0,57.0,29.82,South,181,0.0,-999.0,86,-99.99,,,-99.99,,2013-05-05 10:52:00,
2013-05-05 06:01:00,61.0,57.0,29.82,South,181,0.0,-999.0,87,-99.99,,,-99.99,,2013-05-05 11:01:00,
2013-05-05 06:12:00,61.0,57.0,29.82,South,181,0.0,-999.0,87,-99.99,,,-99.99,,2013-05-05 11:12:00,
2013-05-05 06:21:00,61.0,57.0,29.82,South,181,0.0,-999.0,87,-99.99,,,-99.99,,2013-05-05 11:21:00,
2013-05-05 06:32:00,61.0,57.0,29.82,South,181,0.0,-999.0,87,-99.99,,,-99.99,,2013-05-05 11:32:00,
2013-05-05 06:42:00,61.0,57.0,29.82,South,181,0.0,-999.0,87,-99.99,,,-99.99,,2013-05-05 11:42:00,
2013-05-05 06:51:00,62.0,58.0,29.82,South,181,0.0,-999.0,87,-99.99,,,-99.99,,2013-05-05 11:51:00,
2013-05-05 07:02:00,61.0,57.0,29.83,South,181,0.0,-999.0,87,-99.99,,,-99.99,,2013-05-05 12:02:00,
2013-05-05 07:11:00,61.0,57.0,29.83,South,181,0.0,-999.0,87,-99.99,,,-99.99,,2013-05-05 12:11:00,
2013-05-05 07:21:00,62.0,58.0,29.83,South,181,0.0,-999.0,87,-99.99,,,-99.99,,2013-05-05 12:21:00,
2013-05-05 07:32:00,62.0,58.0,29.85,South,181,0.0,-999.0,88,-99.99,,,-99.99,,2013-05-05 12:32:00,
2013-05-05 07:42:00,62.0,58.0,29.85,South,181,0.0,-999.0,88,-99.99,,,-99.99,,2013-05-05 12:42:00,
2013-05-05 07:52:00,62.0,58.0,29.85,South,181,0.0,-999.0,87,-99.99,,,-99.99,,2013-05-05 12:52:00,
2013-05-05 08:01:00,63.0,59.0,29.85,South,181,0.0,-999.0,87,-99.99,,,-99.99,,2013-05-05 13:01:00,
2013-05-05 08:11:00,63.0,59.0,29.85,South,181,0.0,-999.0,87,-99.99,,,-99.99,,2013-05-05 13:11:00,
2013-05-05 08:21:00,65.0,60.0,29.85,South,185,1.0,-999.0,84,-99.99,,,-99.99,,2013-05-05 13:21:00,
2013-05-05 08:32:00,66.0,60.0,29.86,South,186,0.0,-999.0,82,-99.99,,,-99.99,,2013-05-05 13:32:00,
2013-05-05 08:42:00,66.0,60.0,29.86,South,186,0.0,-999.0,82,-99.99,,,-99.99,,2013-05-05 13:42:00,
2013-05-05 08:52:00,68.0,61.0,29.86,SSW,205,1.0,-999.0,79,-99.99,,,-99.99,,2013-05-05 13:52:00,
2013-05-05 09:02:00,70.0,61.0,29.87,SSW,204,2.0,-999.0,74,-99.99,,,-99.99,,2013-05-05 14:02:00,
2013-05-05 09:11:00,70.0,61.0,29.87,SSW,204,2.0,-999.0,74,-99.99,,,-99.99,,2013-05-05 14:11:00,
2013-05-05 09:21:00,71.0,60.0,29.87,SW,226,2.0,-999.0,69,-99.99,,,-99.99,,2013-05-05 14:21:00,
2013-05-05 09:32:00,72.0,60.0,29.87,SSW,198,2.0,-999.0,67,-99.99,,,-99.99,,2013-05-05 14:32:00,
2013-05-05 09:42:00,72.0,60.0,29.87,SSW,198,2.0,-999.0,67,-99.99,,,-99.99,,2013-05-05 14:42:00,
2013-05-05 09:52:00,74.0,61.0,29.88,South,186,1.0,-999.0,63,-99.99,,,-99.99,,2013-05-05 14:52:00,
2013-05-05 10:02:00,71.0,63.0,29.88,ENE,57,4.0,-999.0,75,-99.99,,,-99.99,,2013-05-05 15:02:00,
2013-05-05 10:11:00,71.0,63.0,29.88,ENE,57,4.0,-999.0,75,-99.99,,,-99.99,,2013-05-05 15:11:00,
2013-05-05 10:21:00,70.0,63.0,29.89,NE,51,5.0,-999.0,79,-99.99,,,-99.99,,2013-05-05 15:21:00,
2013-05-05 10:33:00,70.0,64.0,29.90,NE,51,6.0,-999.0,80,-99.99,,,-99.99,,2013-05-05 15:33:00,
2013-05-05 10:43:00,70.0,64.0,29.90,NE,51,6.0,-999.0,80,-99.99,,,-99.99,,2013-05-05 15:43:00,
2013-05-05 10:53:00,69.0,63.0,29.90,NE,50,7.0,-999.0,80,-99.99,,,-99.99,,2013-05-05 15:53:00,
2013-05-05 11:03:00,69.0,63.0,29.90,NE,43,9.0,-999.0,80,-99.99,,,-99.99,,2013-05-05 16:03:00,
2013-05-05 11:12:00,69.0,63.0,29.90,NE,43,9.0,-999.0,80,-99.99,,,-99.99,,2013-05-05 16:12:00,
2013-05-05 11:23:00,70.0,64.0,29.91,NE,49,7.0,-999.0,80,-99.99,,,-99.99,,2013-05-05 16:23:00,
2013-05-05 11:32:00,71.0,63.0,29.91,ENE,60,5.0,-999.0,77,-99.99,,,-99.99,,2013-05-05 16:32:00,
2013-05-05 11:42:00,71.0,63.0,29.91,ENE,60,5.0,-999.0,77,-99.99,,,-99.99,,2013-05-05 16:42:00,
2013-05-05 11:52:00,71.0,63.0,29.91,ENE,58,6.0,-999.0,77,-99.99,,,-99.99,,2013-05-05 16:52:00,
2013-05-05 12:02:00,71.0,63.0,29.91,ENE,63,9.0,-999.0,77,-99.99,,,-99.99,,2013-05-05 17:02:00,
2013-05-05 12:12:00,71.0,63.0,29.91,ENE,63,9.0,-999.0,77,-99.99,,,-99.99,,2013-05-05 17:12:00,
2013-05-05 12:23:00,71.0,63.0,29.91,ENE,57,11.0,-999.0,77,-99.99,,,-99.99,,2013-05-05 17:23:00,
2013-05-05 12:32:00,71.0,64.0,29.91,NE,53,13.0,-999.0,78,-99.99,,,-99.99,,2013-05-05 17:32:00,
2013-05-05 12:42:00,71.0,64.0,29.91,NE,53,13.0,-999.0,78,-99.99,,,-99.99,,2013-05-05 17:42:00,
2013-05-05 12:52:00,71.0,64.0,29.91,ENE,58,11.0,-999.0,78,-99.99,,,-99.99,,2013-05-05 17:52:00,
2013-05-05 13:01:00,71.0,64.0,29.91,ENE,59,10.0,-999.0,78,-99.99,,,-99.99,,2013-05-05 18:01:00,
2013-05-05 13:12:00,71.0,64.0,29.91,ENE,59,10.0,-999.0,78,-99.99,,,-99.99,,2013-05-05 18:12:00,
2013-05-05 13:21:00,72.0,65.0,29.91,ENE,65,9.0,-999.0,78,-99.99,,,-99.99,,2013-05-05 18:21:00,
2013-05-05 13:32:00,72.0,64.0,29.91,ENE,58,11.0,-999.0,77,-99.99,,,-99.99,,2013-05-05 18:32:00,
2013-05-05 13:42:00,72.0,64.0,29.91,ENE,58,11.0,-999.0,77,-99.99,,,-99.99,,2013-05-05 18:42:00,
2013-05-05 13:51:00,72.0,64.0,29.91,NE,54,11.0,-999.0,77,-99.99,,,-99.99,,2013-05-05 18:51:00,
2013-05-05 14:01:00,72.0,65.0,29.91,NE,56,12.0,-999.0,78,-99.99,,,-99.99,,2013-05-05 19:01:00,
2013-05-05 14:11:00,72.0,65.0,29.91,NE,56,12.0,-999.0,78,-99.99,,,-99.99,,2013-05-05 19:11:00,
2013-05-05 14:21:00,72.0,64.0,29.91,ENE,65,13.0,-999.0,77,-99.99,,,-99.99,,2013-05-05 19:21:00,
2013-05-05 14:32:00,71.0,63.0,29.91,NE,55,13.0,-999.0,76,-99.99,,,-99.99,,2013-05-05 19:32:00,
2013-05-05 14:42:00,71.0,63.0,29.91,NE,55,13.0,-999.0,76,-99.99,,,-99.99,,2013-05-05 19:42:00,
2013-05-05 14:52:00,72.0,64.0,29.91,ENE,69,11.0,-999.0,77,-99.99,,,-99.99,,2013-05-05 19:52:00,
2013-05-05 15:01:00,72.0,64.0,29.91,ENE,60,11.0,-999.0,77,-99.99,,,-99.99,,2013-05-05 20:01:00,
2013-05-05 15:11:00,72.0,64.0,29.91,ENE,60,11.0,-999.0,77,-99.99,,,-99.99,,2013-05-05 20:11:00,
2013-05-05 15:21:00,72.0,65.0,29.90,ENE,65,11.0,-999.0,78,-99.99,,,-99.99,,2013-05-05 20:21:00,
2013-05-05 15:31:00,72.0,65.0,29.90,ENE,59,12.0,-999.0,78,-99.99,,,-99.99,,2013-05-05 20:31:00,
2013-05-05 15:41:00,72.0,65.0,29.90,ENE,59,12.0,-999.0,78,-99.99,,,-99.99,,2013-05-05 20:41:00,
2013-05-05 15:52:00,72.0,64.0,29.90,NE,56,12.0,-999.0,77,-99.99,,,-99.99,,2013-05-05 20:52:00,
2013-05-05 16:02:00,72.0,64.0,29.90,NE,55,13.0,-999.0,77,-99.99,,,-99.99,,2013-05-05 21:02:00,
2013-05-05 16:11:00,72.0,64.0,29.90,NE,55,13.0,-999.0,77,-99.99,,,-99.99,,2013-05-05 21:11:00,
2013-05-05 16:21:00,71.0,64.0,29.89,ENE,61,13.0,-999.0,78,-99.99,,,-99.99,,2013-05-05 21:21:00,
2013-05-05 16:33:00,72.0,65.0,29.88,NE,56,12.0,-999.0,78,-99.99,,,-99.99,,2013-05-05 21:33:00,
2013-05-05 16:42:00,72.0,65.0,29.88,NE,56,12.0,-999.0,78,-99.99,,,-99.99,,2013-05-05 21:42:00,
2013-05-05 16:53:00,71.0,64.0,29.88,ENE,61,13.0,-999.0,78,-99.99,,,-99.99,,2013-05-05 21:53:00,
2013-05-05 17:02:00,72.0,64.0,29.88,ENE,61,13.0,-999.0,76,-99.99,,,-99.99,,2013-05-05 22:02:00,
2013-05-05 17:12:00,72.0,64.0,29.88,ENE,61,13.0,-999.0,76,-99.99,,,-99.99,,2013-05-05 22:12:00,
2013-05-05 17:22:00,72.0,64.0,29.87,ENE,63,12.0,-999.0,77,-99.99,,,-99.99,,2013-05-05 22:22:00,
2013-05-05 17:33:00,72.0,64.0,29.87,NE,55,12.0,-999.0,75,-99.99,,,-99.99,,2013-05-05 22:33:00,
2013-05-05 17:42:00,72.0,64.0,29.87,NE,55,12.0,-999.0,75,-99.99,,,-99.99,,2013-05-05 22:42:00,
2013-05-05 17:52:00,72.0,64.0,29.87,ENE,68,9.0,-999.0,75,-99.99,,,-99.99,,2013-05-05 22:52:00,
2013-05-05 18:02:00,73.0,65.0,29.86,East,80,7.0,-999.0,76,-99.99,,,-99.99,,2013-05-05 23:02:00,
2013-05-05 18:11:00,73.0,65.0,29.86,East,80,7.0,-999.0,76,-99.99,,,-99.99,,2013-05-05 23:11:00,
2013-05-05 18:21:00,72.0,64.0,29.87,ESE,102,8.0,-999.0,77,-99.99,,,-99.99,,2013-05-05 23:21:00,
2013-05-05 18:32:00,72.0,65.0,29.87,ESE,119,6.0,-999.0,78,-99.99,,,-99.99,,2013-05-05 23:32:00,
2013-05-05 18:42:00,72.0,65.0,29.87,ESE,119,6.0,-999.0,78,-99.99,,,-99.99,,2013-05-05 23:42:00,
2013-05-05 18:52:00,72.0,64.0,29.87,NE,46,5.0,-999.0,77,-99.99,,,-99.99,,2013-05-05 23:52:00,
2013-05-05 19:01:00,73.0,65.0,29.87,East,89,3.0,-999.0,76,-99.99,,,-99.99,,2013-05-06 00:01:00,
2013-05-05 19:11:00,73.0,65.0,29.87,East,89,3.0,-999.0,76,-99.99,,,-99.99,,2013-05-06 00:11:00,
2013-05-05 19:21:00,73.0,65.0,29.88,ESE,105,2.0,-999.0,76,-99.99,,,-99.99,,2013-05-06 00:21:00,
2013-05-05 19:31:00,72.0,64.0,29.88,East,101,3.0,-999.0,75,-99.99,,,-99.99,,2013-05-06 00:31:00,
2013-05-05 19:41:00,72.0,64.0,29.88,East,101,3.0,-999.0,75,-99.99,,,-99.99,,2013-05-06 00:41:00,
2013-05-05 19:51:00,72.0,64.0,29.88,ESE,105,3.0,-999.0,75,-99.99,,,-99.99,,2013-05-06 00:51:00,
2013-05-05 20:01:00,71.0,63.0,29.88,ESE,119,2.0,-999.0,77,-99.99,,,-99.99,,2013-05-06 01:01:00,
2013-05-05 20:11:00,71.0,63.0,29.88,ESE,119,2.0,-999.0,77,-99.99,,,-99.99,,2013-05-06 01:11:00,
2013-05-05 20:21:00,71.0,64.0,29.88,ESE,108,3.0,-999.0,78,-99.99,,,-99.99,,2013-05-06 01:21:00,
2013-05-05 20:31:00,70.0,63.0,29.89,ESE,105,3.0,-999.0,79,-99.99,,,-99.99,,2013-05-06 01:31:00,
2013-05-05 20:41:00,70.0,63.0,29.89,ESE,105,3.0,-999.0,79,-99.99,,,-99.99,,2013-05-06 01:41:00,
2013-05-05 20:52:00,70.0,63.0,29.90,SE,124,2.0,-999.0,79,-99.99,,,-99.99,,2013-05-06 01:52:00,
2013-05-05 21:02:00,70.0,63.0,29.90,SE,136,3.0,-999.0,79,-99.99,,,-99.99,,2013-05-06 02:02:00,
2013-05-05 21:12:00,70.0,63.0,29.90,SE,136,3.0,-999.0,79,-99.99,,,-99.99,,2013-05-06 02:12:00,
2013-05-05 21:21:00,70.0,63.0,29.90,SE,124,3.0,-999.0,79,-99.99,,,-99.99,,2013-05-06 02:21:00,
2013-05-05 21:32:00,69.0,62.0,29.91,ESE,123,2.0,-999.0,79,-99.99,,,-99.99,,2013-05-06 02:32:00,
2013-05-05 21:42:00,69.0,62.0,29.91,ESE,123,2.0,-999.0,79,-99.99,,,-99.99,,2013-05-06 02:42:00,
2013-05-05 21:51:00,69.0,63.0,29.91,SE,141,2.0,-999.0,80,-99.99,,,-99.99,,2013-05-06 02:51:00,
2013-05-05 22:02:00,69.0,63.0,29.91,SE,139,2.0,-999.0,80,-99.99,,,-99.99,,2013-05-06 03:02:00,
2013-05-05 22:11:00,69.0,63.0,29.91,SE,139,2.0,-999.0,80,-99.99,,,-99.99,,2013-05-06 03:11:00,
2013-05-05 22:22:00,69.0,63.0,29.91,SSE,165,3.0,-999.0,80,-99.99,,,-99.99,,2013-05-06 03:22:00,
2013-05-05 22:33:00,68.0,62.0,29.91,SE,132,2.0,-999.0,81,-99.99,,,-99.99,,2013-05-06 03:33:00,
2013-05-05 22:42:00,68.0,62.0,29.91,SE,132,2.0,-999.0,81,-99.99,,,-99.99,,2013-05-06 03:42:00,
2013-05-05 22:52:00,69.0,63.0,29.91,South,177,3.0,-999.0,82,-99.99,,,-99.99,,2013-05-06 03:52:00,
2013-05-05 23:02:00,69.0,63.0,29.91,SSE,148,3.0,-999.0,81,-99.99,,,-99.99,,2013-05-06 04:02:00,
2013-05-05 23:12:00,69.0,63.0,29.91,SSE,148,3.0,-999.0,81,-99.99,,,-99.99,,2013-05-06 04:12:00,
2013-05-05 23:23:00,69.0,63.0,29.92,SE,132,3.0,-999.0,82,-99.99,,,-99.99,,2013-05-06 04:23:00,
2013-05-05 23:32:00,69.0,63.0,29.93,ESE,120,3.0,-999.0,82,-99.99,,,-99.99,,2013-05-06 04:32:00,
2013-05-05 23:42:00,69.0,63.0,29.93,ESE,120,3.0,-999.0,82,-99.99,,,-99.99,,2013-05-06 04:42:00,
2013-05-05 23:52:00,69.0,63.0,29.93,SE,141,2.0,-999.0,82,-99.99,,,-99.99,,2013-05-06 04:52:00,